Theta_e
354 355 361 359 359 360 362 364 365 364 362 360 358 358 358 359 359 359 359 360 361 361 361 357 356 359 356 351 349 349 354 356 355 354 353 350 350 349 347 345 344 343 346
357 355 361 360 359 360 360 362 363 364 364 362 360 359 359 359 359 360 359 359 359 359 360 357 355 354 357 355 351 350 352 354 354 354 354 354 351 350 348 344 345 345 346
356 358 352 360 359 359 359 360 362 362 362 361 361 359 359 359 359 359 359 358 357 357 358 358 355 354 354 355 357 354 352 351 352 354 355 352 355 352 350 347 343 345 345
356 360 358 360 359 358 358 357 359 359 360 360 360 359 358 358 358 358 358 357 357 359 359 359 357 355 354 355 356 357 358 357 356 354 351 353 354 355 353 350 348 347 345
357 360 362 361 359 357 357 357 356 357 357 357 357 357 357 357 358 357 357 358 359 360 359 358 357 356 355 355 356 357 358 358 359 357 352 352 352 356 354 352 350 349 348
356 358 361 361 360 358 357 357 357 357 356 355 355 354 354 354 355 355 357 358 359 359 360 360 360 360 359 357 358 358 358 357 357 348 349 352 352 356 356 354 353 355 351
354 356 358 363 361 360 358 357 357 357 356 355 354 353 353 354 355 356 356 356 357 357 358 358 360 361 361 360 359 358 358 355 349 342 343 347 350 356 359 357 356 355 355
356 355 354 361 361 361 360 359 358 357 356 355 355 355 355 355 355 356 357 356 356 357 358 358 360 361 362 362 361 359 358 354 347 342 342 342 353 358 360 358 358 358 357
349 349 353 355 359 361 361 360 360 359 359 358 358 357 358 358 358 357 357 357 357 357 358 359 360 360 360 360 360 360 359 356 351 343 340 340 357 361 361 359 358 358 358
347 351 353 357 357 358 355 353 352 349 348 348 350 346 349 356 360 359 359 358 358 359 358 359 360 359 359 358 358 358 358 357 351 346 344 342 359 362 363 362 361 361 360
342 342 343 342 343 344 346 346 347 349 348 349 350 346 349 352 354 355 358 354 355 356 357 358 359 359 359 358 358 358 359 350 346 344 345 349 358 359 358 357 356 356 356
331 331 332 333 333 333 332 338 337 336 340 342 341 341 339 341 344 343 349 353 355 355 356 357 357 358 357 354 352 358 355 352 352 346 343 354 358 358 358 355 354 353 354
329 329 330 333 333 330 329 331 331 332 332 334 337 337 340 334 336 335 335 336 341 348 344 346 347 350 352 349 348 346 352 354 351 351 349 358 356 357 357 355 354 353 353
326 328 330 333 335 337 330 329 329 328 330 331 334 337 337 330 332 332 329 330 331 331 335 337 337 341 342 344 345 345 345 344 345 343 349 356 353 357 357 356 355 354 353
327 328 329 333 339 338 336 332 332 331 330 332 331 335 333 331 334 331 331 329 329 328 327 327 327 330 330 335 338 339 341 343 343 346 347 359 354 353 357 358 357 356 356
330 330 332 333 339 336 338 339 336 335 335 332 331 333 334 333 336 332 332 330 330 330 329 329 328 327 327 325 328 334 339 343 345 346 344 348 355 353 354 357 357 357 357
331 334 334 333 336 336 335 336 337 334 333 332 333 336 335 336 337 336 331 330 330 333 332 332 332 330 327 326 328 325 329 337 340 345 348 346 346 354 354 354 356 356 357
333 334 336 332 333 338 339 338 335 335 335 334 334 335 335 335 337 339 330 331 331 332 329 331 328 327 325 324 325 325 326 328 332 340 343 346 347 345 352 353 355 355 356
335 335 334 336 335 337 340 339 339 341 336 335 335 335 336 335 334 337 332 332 338 330 329 329 327 327 324 324 323 324 327 327 329 327 336 343 344 348 346 353 352 352 353
335 337 338 337 339 342 340 340 336 334 333 333 333 333 336 335 334 338 333 336 335 329 327 327 330 327 326 324 320 320 326 326 327 328 330 334 342 344 348 349 351 350 351
334 336 339 339 343 342 339 334 332 330 332 331 332 338 337 335 334 340 331 331 330 327 328 329 326 325 322 324 321 321 323 326 328 327 327 329 334 341 345 348 351 352 350
335 338 340 341 343 343 339 339 337 336 334 334 334 338 336 335 335 331 333 327 328 322 325 326 325 319 319 322 318 317 315 318 322 324 327 328 332 337 338 342 350 351 352
335 337 338 342 341 340 340 336 336 335 333 327 328 327 329 329 327 329 328 326 324 322 318 322 321 320 314 318 323 318 312 311 316 324 329 327 330 334 340 341 344 345 348
334 338 336 337 337 335 336 333 331 327 323 324 323 323 324 325 322 321 322 320 321 317 314 313 313 313 313 310 313 316 320 318 316 314 322 325 331 337 339 342 341 344 352
333 334 336 335 333 333 331 329 325 324 322 321 319 322 323 322 321 317 316 316 314 311 311 311 310 309 309 308 309 310 311 313 315 315 315 317 323 328 336 342 339 340 345
331 332 332 330 329 330 327 325 323 320 319 316 315 314 314 314 314 314 313 312 311 310 309 309 308 308 308 308 308 307 308 306 310 312 313 320 320 324 329 335 340 341 342
Wind_Speed
17 12 9 7 9 8 8 7 8 8 8 9 8 8 8 8 8 7 7 7 6 4 3 3 4 4 4 4 4 3 3 4 4 4 4 5 6 7 5 3 2 8 10
17 12 10 9 9 8 8 8 7 7 8 8 8 9 8 8 7 7 6 5 4 3 1 1 2 2 2 2 1 1 1 1 1 2 3 7 8 9 5 1 6 11 8
16 9 11 8 9 8 8 9 8 8 7 7 6 6 7 7 7 6 5 5 4 3 3 2 2 2 2 2 2 2 2 3 3 5 7 11 12 14 9 5 3 6 7
11 10 11 8 8 7 8 9 9 7 6 6 6 7 7 6 6 5 3 3 4 4 5 5 4 4 4 5 5 5 5 6 6 8 10 12 9 18 14 9 6 6 7
10 12 10 8 8 7 7 8 8 8 6 5 4 4 4 4 3 2 3 4 5 6 6 5 5 6 7 7 7 8 8 8 9 10 12 12 9 16 16 13 10 9 9
8 14 11 9 8 7 7 7 8 7 5 5 4 4 3 1 1 2 4 5 6 7 8 8 9 8 9 9 9 9 9 10 10 14 14 13 9 16 16 14 11 9 13
9 14 12 9 9 8 7 7 7 6 5 4 3 2 2 2 3 4 5 6 7 8 9 10 10 9 9 10 10 10 10 12 13 15 14 13 13 18 17 16 14 12 11
11 14 12 11 10 9 8 7 6 5 4 3 2 1 1 2 4 6 6 7 8 9 9 10 10 10 10 10 11 12 12 13 14 15 15 14 3 18 17 15 14 14 14
10 10 12 13 13 12 10 9 8 7 6 4 3 2 4 6 8 9 9 10 10 10 10 11 11 12 12 13 13 13 14 15 15 13 16 12 10 19 18 16 15 15 16
10 11 11 11 12 15 11 7 8 6 5 4 3 1 7 12 12 12 13 11 8 8 11 12 13 13 14 14 15 16 16 18 16 17 14 13 8 15 15 15 15 16 17
8 8 9 9 8 7 9 9 11 10 9 9 7 5 10 7 2 7 5 5 6 10 12 13 16 15 16 16 18 20 21 12 16 13 12 18 15 18 18 16 15 16 17
11 11 9 8 7 7 6 4 5 4 5 6 7 9 7 8 6 7 11 7 11 13 13 19 18 19 15 13 11 24 11 12 15 13 12 16 16 17 17 17 16 16 18
10 10 11 8 6 8 7 4 4 4 4 4 7 7 7 6 8 7 7 7 8 7 10 7 7 10 16 12 13 11 10 14 11 12 13 11 19 20 19 17 17 18 20
11 11 11 10 8 8 7 7 6 5 4 4 5 7 5 5 7 7 7 9 8 9 11 10 9 12 14 15 16 17 18 16 11 9 9 15 17 16 19 19 19 19 21
11 10 10 9 8 5 6 5 5 4 6 3 3 5 4 6 5 7 7 7 8 9 9 11 12 11 14 16 16 18 18 17 18 10 10 4 12 24 17 19 19 20 22
9 8 9 9 5 7 5 4 2 4 1 4 4 6 6 6 4 7 8 8 9 9 9 11 11 11 11 14 16 16 17 17 17 17 13 12 17 17 20 19 21 21 23
8 6 5 4 5 1 1 2 3 4 7 5 6 5 4 6 7 7 8 8 9 9 13 12 12 12 12 12 14 15 15 17 17 18 15 14 14 19 25 25 25 22 23
6 7 4 6 4 5 4 5 5 5 6 8 7 7 9 9 9 8 10 10 11 10 12 12 12 12 12 13 12 13 13 15 18 17 15 15 14 13 19 33 23 21 22
6 5 5 4 6 7 4 5 7 6 6 7 8 8 10 10 12 10 11 12 11 12 12 12 12 13 12 13 14 14 13 13 14 16 18 17 20 15 12 17 25 25 24
7 6 5 5 5 5 6 7 8 7 8 8 8 9 11 10 14 11 12 12 11 12 12 13 14 13 14 14 17 16 13 14 14 14 15 16 16 19 16 17 14 13 20
8 7 7 7 6 6 7 8 9 9 10 11 11 13 13 13 15 12 12 13 13 14 15 15 14 16 14 13 14 13 14 15 16 15 15 15 18 17 17 15 10 10 14
10 8 9 8 5 6 7 7 8 9 10 10 11 11 12 13 14 14 13 14 15 14 16 15 14 14 14 13 14 14 15 13 13 15 15 15 18 15 18 17 16 17 14
10 9 6 5 5 4 8 7 5 8 9 11 12 13 14 16 17 17 16 15 15 13 14 14 14 15 13 13 17 14 15 14 14 12 12 14 16 13 15 16 17 15 16
10 8 5 5 4 5 7 7 8 8 10 11 12 13 14 16 18 19 17 15 14 11 11 10 10 10 11 11 11 13 17 16 16 16 14 14 13 14 14 12 14 17 13
8 7 6 5 5 5 6 8 8 11 11 12 12 16 15 14 14 17 17 14 12 11 11 12 12 12 10 11 10 12 15 15 15 15 14 13 15 13 11 12 14 12 11
9 7 5 3 3 6 8 10 11 13 14 13 15 14 13 12 12 14 15 14 13 14 12 10 12 13 12 11 10 11 10 9 12 12 15 13 14 14 13 9 6 5 10
Wind_Direction
90 101 84 79 79 67 67 73 98 109 119 129 135 145 148 143 141 140 138 139 139 132 104 78 72 62 67 73 91 87 87 90 99 105 114 128 133 128 134 166 203 108 113
95 95 78 73 72 64 72 77 80 95 113 131 145 153 154 152 154 151 151 154 158 156 127 30 36 42 45 68 83 103 123 137 154 179 214 203 181 155 154 176 22 97 120
89 121 100 79 80 84 83 85 87 90 100 114 131 146 152 155 158 162 167 174 187 215 237 248 269 301 305 300 283 273 270 266 260 256 255 262 182 171 160 171 117 126 145
105 105 100 98 90 93 93 94 93 99 109 123 134 144 153 162 168 173 184 209 241 249 254 263 266 273 268 268 261 257 256 258 261 266 261 246 187 161 161 172 179 178 179
119 98 104 112 106 107 106 101 102 99 107 112 118 126 140 157 167 193 224 246 257 266 274 271 272 273 272 267 265 265 264 263 262 259 260 267 277 161 162 171 184 199 206
94 102 113 113 117 115 110 115 112 108 103 106 109 112 123 143 223 240 261 271 278 284 287 288 286 279 272 271 269 266 264 265 269 262 250 252 252 135 169 177 209 221 195
139 122 117 115 119 120 119 109 102 101 105 106 117 143 170 214 251 265 269 276 280 283 285 286 286 286 277 270 266 262 262 263 268 275 274 268 258 151 169 179 193 214 204
99 120 119 111 101 98 99 102 105 105 101 94 80 27 312 268 257 257 258 258 260 268 270 273 278 278 274 268 264 263 259 262 267 262 263 267 224 160 172 181 194 207 215
128 122 134 129 121 119 111 111 108 111 117 125 133 182 224 236 233 237 243 249 249 257 261 264 261 260 259 257 254 253 253 257 267 272 272 264 185 170 176 183 195 211 219
123 121 131 164 151 155 126 115 121 118 121 139 147 227 267 248 225 226 225 228 249 257 264 264 260 257 255 255 253 250 248 252 254 261 262 257 198 176 180 189 201 213 220
119 102 85 90 88 80 115 135 165 164 179 187 177 222 269 276 320 297 99 137 235 248 255 258 253 252 251 252 249 241 237 246 249 248 248 241 201 180 183 193 207 219 226
110 93 86 93 120 117 114 121 128 91 67 42 23 347 340 339 313 318 276 253 237 241 248 244 241 242 245 255 247 224 226 237 261 244 245 251 179 178 185 195 207 222 230
114 112 105 101 67 78 75 80 64 58 33 55 46 5 28 324 16 321 325 315 327 244 266 313 285 242 247 292 299 294 208 227 244 247 243 225 178 183 193 201 209 221 230
105 109 105 97 81 35 49 43 62 57 46 52 56 9 29 356 6 349 356 329 317 333 324 304 308 318 307 293 284 280 281 286 287 284 240 152 226 189 193 203 214 223 232
134 120 105 95 84 86 53 68 46 26 33 14 36 68 16 346 13 339 340 322 326 331 324 330 319 312 307 297 290 283 277 274 273 278 281 213 183 209 204 213 217 225 233
122 134 115 122 142 95 78 41 348 51 326 354 349 29 336 344 11 320 323 339 321 322 332 314 310 306 292 296 291 285 279 282 278 270 267 261 197 196 229 215 219 225 233
145 125 145 129 121 25 117 249 347 280 346 320 323 298 311 313 327 308 308 302 316 322 318 302 302 302 293 293 291 284 280 272 258 266 265 264 258 203 211 208 214 219 229
178 161 200 310 142 168 332 297 320 322 317 314 307 315 311 290 290 306 301 307 316 306 304 301 299 298 296 294 297 295 290 287 286 281 266 273 247 245 207 224 212 219 224
204 217 219 232 291 334 307 284 293 284 272 304 297 294 302 310 299 296 297 297 311 301 294 298 291 291 295 297 289 281 276 273 271 272 270 261 270 256 248 218 208 209 217
212 219 247 275 317 307 294 272 263 276 282 292 300 300 304 303 303 302 306 297 296 294 292 293 295 290 291 290 280 281 282 281 280 277 277 274 261 261 245 234 204 211 218
223 232 245 259 267 286 303 312 300 305 318 310 310 320 320 305 299 292 290 299 305 297 301 300 291 288 285 284 281 274 270 262 256 249 257 261 264 262 257 253 240 200 198
224 228 238 249 295 315 312 329 318 308 307 310 299 286 290 314 320 311 313 308 301 306 301 292 286 283 279 274 276 280 280 270 262 257 249 240 245 249 256 256 248 225 232
230 238 266 5 348 352 353 290 319 319 300 309 321 324 313 322 320 312 307 306 299 296 292 310 315 312 298 297 299 295 284 276 286 280 269 237 242 239 235 252 255 237 232
235 63 53 51 17 70 20 351 355 309 317 331 305 314 324 314 313 301 294 311 317 322 315 313 310 314 302 289 294 288 289 303 296 282 286 288 284 235 241 241 235 243 220
102 98 90 87 68 42 8 360 340 333 325 319 317 314 313 295 305 326 315 314 315 307 301 301 290 283 278 280 283 276 276 283 284 288 265 272 284 286 269 218 237 253 242
117 114 110 110 53 17 1 355 343 329 322 318 314 310 307 326 315 316 320 314 310 302 295 298 292 283 276 271 268 279 277 274 283 288 300 264 255 277 285 280 290 318 322